When you browse on this site, cookies collect data to enhance your experience and personalize the content and advertising you see.
Visit our Privacy Policy to learn more. By continuing to use the site, you agree to this use of cookies and data.
  • En España
  • Lista de países
  • Para 7 días
  • Temperatura del agua
  • Mapa Satelital
  • El tiempo en el mapa
  • Informadores
  • user-avatar
    Iniciar sesión

    Tiempo cada hora Nashavar

    Hoy, 17 Noviembre, Sábado

    Tiempo Temperatura Precipitaciones Viento Presión Humedad
    00:00 +19°C° 0 mm 1 mps 730 mmHg 24%
    01:00 +19°C° 0 mm 1 mps 730 mmHg 24%
    02:00 +18°C° 0 mm 1 mps 730 mmHg 24%
    03:00 +18°C° 0 mm 1 mps 729 mmHg 23%
    04:00 +16°C° 0 mm 1 mps 729 mmHg 23%
    05:00 +16°C° 0 mm 1 mps 729 mmHg 23%
    06:00 +16°C° 0 mm 1 mps 730 mmHg 22%
    07:00 +18°C° 0 mm 1 mps 730 mmHg 22%
    08:00 +19°C° 0 mm 1 mps 730 mmHg 22%
    09:00 +20°C° 0 mm 1 mps 730 mmHg 19%
    10:00 +22°C° 0 mm 1 mps 730 mmHg 17%
    11:00 +24°C° 0 mm 1 mps 730 mmHg 14%
    12:00 +25°C° 0 mm 1 mps 729 mmHg 14%
    13:00 +26°C° 0 mm 1 mps 729 mmHg 14%
    14:00 +26°C° 0 mm 1 mps 729 mmHg 14%
    15:00 +25°C° 0 mm 1 mps 728 mmHg 16%
    16:00 +25°C° 0 mm 1 mps 728 mmHg 19%
    17:00 +24°C° 0 mm 1 mps 728 mmHg 21%
    18:00 +23°C° 0 mm 1 mps 728 mmHg 22%
    19:00 +22°C° 0 mm 1 mps 729 mmHg 24%
    20:00 +19°C° 0 mm 0 mps 729 mmHg 25%
    21:00 +21°C° 0 mm 1 mps 729 mmHg 25%
    22:00 +20°C° 0 mm 1 mps 729 mmHg 25%
    23:00 +20°C° 0 mm 1 mps 729 mmHg 25%

    Mañana, 18 Noviembre, Domingo

    Tiempo Temperatura Precipitaciones Viento Presión Humedad
    00:00 +20°C° 0 mm 1 mps 729 mmHg 26%
    01:00 +19°C° 0 mm 1 mps 729 mmHg 26%
    02:00 +19°C° 0 mm 1 mps 729 mmHg 26%
    03:00 +18°C° 0 mm 1 mps 729 mmHg 26%
    04:00 +18°C° 0 mm 1 mps 730 mmHg 26%
    05:00 +18°C° 0 mm 1 mps 730 mmHg 26%
    06:00 +18°C° 0 mm 1 mps 730 mmHg 25%
    07:00 +19°C° 0 mm 1 mps 730 mmHg 24%
    08:00 +19°C° 0 mm 1 mps 731 mmHg 24%
    09:00 +21°C° 0 mm 1 mps 731 mmHg 21%
    10:00 +23°C° 0 mm 1 mps 731 mmHg 18%
    11:00 +24°C° 0 mm 1 mps 732 mmHg 15%
    12:00 +25°C° 0 mm 1 mps 731 mmHg 14%
    13:00 +26°C° 0 mm 1 mps 731 mmHg 14%
    14:00 +26°C° 0 mm 1 mps 730 mmHg 13%
    15:00 +25°C° 0 mm 1 mps 730 mmHg 15%
    16:00 +24°C° 0 mm 1 mps 730 mmHg 16%
    17:00 +21°C° 0 mm 0 mps 730 mmHg 18%
    18:00 +22°C° 0 mm 1 mps 731 mmHg 19%
    19:00 +22°C° 0 mm 1 mps 731 mmHg 20%
    20:00 +21°C° 0 mm 1 mps 732 mmHg 20%
    21:00 +20°C° 0 mm 1 mps 732 mmHg 21%
    22:00 +20°C° 0 mm 1 mps 732 mmHg 22%
    23:00 +20°C° 0 mm 1 mps 732 mmHg 23%

    Pasado mañana, 19 Noviembre, Lunes

    Tiempo Temperatura Precipitaciones Viento Presión Humedad
    00:00 +19°C° 0 mm 1 mps 732 mmHg 23%
    01:00 +19°C° 0 mm 1 mps 732 mmHg 24%
    02:00 +18°C° 0 mm 1 mps 732 mmHg 25%
    03:00 +18°C° 0 mm 1 mps 732 mmHg 26%
    04:00 +17°C° 0 mm 2 mps 732 mmHg 27%
    05:00 +17°C° 0 mm 2 mps 732 mmHg 28%
    06:00 +17°C° 0 mm 2 mps 733 mmHg 28%
    07:00 +17°C° 0 mm 2 mps 733 mmHg 28%
    08:00 +18°C° 0 mm 2 mps 734 mmHg 28%
    09:00 +19°C° 0 mm 2 mps 734 mmHg 25%
    10:00 +21°C° 0 mm 2 mps 734 mmHg 21%
    11:00 +24°C° 0 mm 2 mps 734 mmHg 18%
    12:00 +25°C° 0 mm 2 mps 734 mmHg 17%
    13:00 +25°C° 0 mm 2 mps 734 mmHg 16%
    14:00 +26°C° 0 mm 2 mps 733 mmHg 15%
    15:00 +25°C° 0 mm 2 mps 733 mmHg 16%
    16:00 +24°C° 0 mm 1 mps 733 mmHg 18%
    17:00 +23°C° 0 mm 1 mps 733 mmHg 20%
    18:00 +23°C° 0 mm 1 mps 733 mmHg 21%
    19:00 +22°C° 0 mm 1 mps 734 mmHg 21%
    20:00 +21°C° 0 mm 1 mps 734 mmHg 22%
    21:00 +20°C° 0 mm 2 mps 734 mmHg 23%
    22:00 +19°C° 0 mm 2 mps 734 mmHg 24%
    23:00 +19°C° 0 mm 2 mps 734 mmHg 25%

    20 Noviembre, Martes

    Tiempo Temperatura Precipitaciones Viento Presión Humedad
    00:00 +18°C° 0 mm 2 mps 734 mmHg 26%
    01:00 +18°C° 0 mm 2 mps 734 mmHg 27%
    02:00 +18°C° 0 mm 2 mps 734 mmHg 28%
    03:00 +17°C° 0 mm 2 mps 734 mmHg 28%
    04:00 +17°C° 0 mm 2 mps 734 mmHg 29%
    05:00 +17°C° 0 mm 2 mps 734 mmHg 29%
    06:00 +17°C° 0 mm 2 mps 734 mmHg 29%
    07:00 +17°C° 0 mm 2 mps 735 mmHg 29%
    08:00 +18°C° 0 mm 2 mps 735 mmHg 29%
    09:00 +19°C° 0 mm 2 mps 735 mmHg 26%
    10:00 +21°C° 0 mm 2 mps 735 mmHg 22%
    11:00 +24°C° 0 mm 2 mps 735 mmHg 19%
    12:00 +25°C° 0 mm 2 mps 735 mmHg 18%
    13:00 +26°C° 0 mm 2 mps 734 mmHg 17%
    14:00 +26°C° 0 mm 2 mps 733 mmHg 17%
    15:00 +25°C° 0 mm 1 mps 733 mmHg 19%
    16:00 +24°C° 0 mm 1 mps 733 mmHg 21%
    17:00 +23°C° 0 mm 1 mps 732 mmHg 23%
    18:00 +23°C° 0 mm 1 mps 733 mmHg 24%
    19:00 +22°C° 0 mm 1 mps 733 mmHg 25%
    20:00 +21°C° 0 mm 1 mps 733 mmHg 25%
    21:00 +21°C° 0 mm 1 mps 733 mmHg 26%
    22:00 +20°C° 0 mm 1 mps 734 mmHg 26%
    23:00 +20°C° 0 mm 1 mps 734 mmHg 27%

    21 Noviembre, Miércoles

    Tiempo Temperatura Precipitaciones Viento Presión Humedad
    00:00 +19°C° 0 mm 1 mps 733 mmHg 27%
    01:00 +19°C° 0 mm 1 mps 733 mmHg 27%
    02:00 +19°C° 0 mm 1 mps 733 mmHg 27%
    03:00 +18°C° 0 mm 1 mps 733 mmHg 27%
    04:00 +17°C° 0 mm 2 mps 732 mmHg 27%
    05:00 +17°C° 0 mm 2 mps 732 mmHg 27%
    06:00 +17°C° 0 mm 2 mps 733 mmHg 27%
    07:00 +17°C° 0 mm 2 mps 733 mmHg 26%
    08:00 +18°C° 0 mm 2 mps 733 mmHg 25%
    09:00 +20°C° 0 mm 2 mps 733 mmHg 22%
    10:00 +21°C° 0 mm 2 mps 733 mmHg 19%
    11:00 +24°C° 0 mm 2 mps 734 mmHg 15%
    12:00 +25°C° 0 mm 2 mps 733 mmHg 14%
    13:00 +26°C° 0 mm 2 mps 732 mmHg 14%
    14:00 +26°C° 0 mm 2 mps 732 mmHg 13%
    15:00 +25°C° 0 mm 1 mps 731 mmHg 15%
    16:00 +24°C° 0 mm 1 mps 731 mmHg 17%
    17:00 +23°C° 0 mm 1 mps 731 mmHg 20%
    18:00 +23°C° 0 mm 1 mps 732 mmHg 20%
    19:00 +22°C° 0 mm 1 mps 732 mmHg 20%
    20:00 +21°C° 0 mm 1 mps 733 mmHg 20%
    21:00 +21°C° 0 mm 1 mps 733 mmHg 20%
    22:00 +21°C° 0 mm 1 mps 733 mmHg 20%
    23:00 +21°C° 0 mm 1 mps 733 mmHg 20%

    22 Noviembre, Jueves

    Tiempo Temperatura Precipitaciones Viento Presión Humedad
    00:00 +21°C° 0 mm 1 mps 733 mmHg 20%
    01:00 +20°C° 0 mm 1 mps 733 mmHg 20%
    02:00 +20°C° 0 mm 1 mps 733 mmHg 20%
    03:00 +20°C° 0 mm 1 mps 733 mmHg 20%
    04:00 +20°C° 0 mm 1 mps 733 mmHg 21%
    05:00 +19°C° 0 mm 2 mps 733 mmHg 21%
    06:00 +19°C° 0.1 mm 2 mps 733 mmHg 24%
    07:00 +19°C° 0.1 mm 2 mps 734 mmHg 26%
    08:00 +19°C° 0.1 mm 2 mps 734 mmHg 29%
    09:00 +20°C° 0.2 mm 2 mps 734 mmHg 30%
    10:00 +20°C° 0.2 mm 2 mps 735 mmHg 31%
    11:00 +20°C° 0.2 mm 2 mps 735 mmHg 32%
    12:00 +20°C° 0.3 mm 3 mps 735 mmHg 36%
    13:00 +19°C° 0.3 mm 4 mps 734 mmHg 40%
    14:00 +19°C° 0.3 mm 5 mps 734 mmHg 43%
    15:00 +19°C° 0 mm 4 mps 734 mmHg 45%
    16:00 +18°C° 0 mm 4 mps 734 mmHg 46%
    17:00 +18°C° 0 mm 3 mps 734 mmHg 47%
    18:00 +17°C° 0 mm 3 mps 734 mmHg 49%
    19:00 +17°C° 0 mm 3 mps 735 mmHg 51%
    20:00 +16°C° 0 mm 3 mps 735 mmHg 52%
    21:00 +16°C° 0 mm 3 mps 735 mmHg 52%
    22:00 +16°C° 0 mm 3 mps 736 mmHg 52%
    23:00 +16°C° 0 mm 2 mps 736 mmHg 52%
    Mostrar más